Wind_Speed
8 7 6 7 9 10 7 6 4 5 4 3 5 5 6 6 5 5 7 7 6 8 8 7 7 10 10 11 11 13 14 16 13 17 17 14 11 11 11 9 8 8 8
9 8 6 8 8 9 7 6 5 5 4 4 4 4 4 3 6 6 6 6 6 7 7 8 7 6 9 8 8 12 14 16 15 14 19 18 15 14 12 11 9 5 10
10 9 7 9 10 10 8 7 7 5 5 4 4 3 5 6 5 5 5 6 6 6 6 7 9 7 5 7 6 9 13 14 13 13 16 19 18 16 15 15 14 14 10
10 9 8 9 10 10 9 8 7 6 6 7 6 6 6 6 7 6 7 6 6 6 6 4 3 6 7 8 6 7 13 15 12 13 14 17 21 19 17 17 17 14 10
11 10 10 10 10 10 10 9 8 8 8 9 10 9 7 8 8 8 4 5 6 5 5 1 7 8 6 7 8 8 9 12 12 15 15 18 24 22 21 17 13 12 9
13 12 12 11 12 11 10 9 8 9 9 9 8 9 11 9 14 15 12 4 6 5 6 5 6 5 4 5 8 10 9 10 11 15 15 19 21 24 23 22 22 19 16
17 15 15 15 15 14 10 10 9 8 7 11 10 11 13 12 12 14 12 9 6 6 5 4 3 7 2 4 5 6 10 11 12 11 13 16 21 24 24 23 21 16 17
20 16 16 17 16 14 13 10 9 8 10 10 10 12 15 16 18 17 13 13 10 7 5 5 6 5 5 4 1 3 4 7 10 11 10 11 13 16 22 19 22 22 15
21 18 17 18 17 17 14 13 9 8 8 7 8 12 14 15 16 13 18 14 11 9 7 6 6 5 9 7 5 4 3 4 5 7 8 9 11 11 12 18 19 16 18
21 18 18 18 17 16 15 12 14 10 6 5 7 7 12 13 14 18 17 13 10 10 11 13 9 10 8 7 7 7 5 5 5 7 10 13 14 13 14 14 15 20 16
20 19 18 17 16 16 16 17 13 9 10 8 7 10 11 13 14 9 14 14 14 12 11 11 11 12 12 11 11 10 10 10 11 7 6 7 10 13 16 18 19 18 16
20 20 19 17 15 16 18 11 9 10 8 5 7 9 7 14 13 8 15 16 16 16 12 12 12 14 13 13 13 16 15 15 9 8 11 11 12 14 12 14 17 16 14
24 22 21 18 18 15 16 14 10 8 6 6 7 8 9 12 10 7 8 11 16 23 21 19 13 16 15 14 16 16 15 15 11 12 13 13 14 14 16 16 18 23 25
27 20 18 16 13 13 10 8 7 7 7 7 8 9 9 7 8 10 10 14 15 15 18 21 26 23 19 19 17 19 20 18 16 17 16 15 15 17 20 19 21 21 20
12 16 14 12 9 9 10 8 7 7 11 7 7 7 7 8 11 15 13 14 14 17 18 17 17 19 21 20 25 25 21 21 23 22 18 17 17 17 19 20 19 18 19
18 13 11 9 8 8 8 6 11 10 7 7 11 10 6 11 12 13 13 14 15 17 17 20 22 21 22 20 21 18 21 23 19 20 22 27 27 26 23 22 25 25 24
15 16 13 11 9 8 7 6 3 2 2 2 2 3 2 1 4 6 5 7 10 14 15 16 17 16 14 18 28 28 30 28 27 28 31 29 28 29 29 29 30 29 28
11 9 9 6 7 5 5 5 5 8 7 8 4 4 6 4 5 6 8 9 8 8 10 10 11 12 14 14 15 19 20 24 25 32 36 32 32 35 36 34 33 33 24
18 12 10 9 7 3 6 4 7 8 7 6 7 7 4 7 4 3 4 8 7 7 7 7 8 10 12 12 11 12 13 14 15 17 22 27 25 27 33 37 39 38 37
6 6 5 5 3 2 1 7 8 8 8 10 12 6 5 0 7 8 5 4 6 10 10 8 8 11 10 9 9 9 9 11 12 14 16 16 20 22 24 26 34 38 38
3 2 2 4 5 12 14 16 13 10 10 5 9 7 7 3 9 4 3 3 5 6 6 8 9 11 11 11 7 8 8 12 14 13 11 12 12 15 16 18 23 31 38
4 9 11 10 11 10 6 7 7 6 4 3 2 0 4 3 1 4 6 4 5 7 8 7 7 6 5 5 5 4 6 11 14 13 13 16 19 20 21 19 18 22 28
6 7 8 8 9 9 8 8 3 2 4 3 9 12 9 8 8 8 7 6 2 5 4 4 1 5 8 6 9 11 13 14 14 15 18 19 19 17 19 24 23 23 24
1 1 2 2 4 2 3 8 7 6 9 11 11 10 8 8 6 4 4 3 2 5 5 6 7 8 7 7 8 9 10 11 12 13 13 15 18 19 20 20 21 22 24
6 6 8 8 8 7 9 12 12 11 9 10 11 10 8 7 6 6 5 7 9 8 8 7 8 10 9 9 11 11 11 12 13 14 10 13 12 12 12 13 14 15 17
10 9 11 10 11 11 12 13 12 11 12 12 11 11 10 10 8 8 9 8 5 4 5 7 9 9 7 10 14 14 14 14 14 13 13 10 12 11 13 14 14 14 16
Wind_Direction
182 207 195 191 193 201 199 206 204 225 233 219 232 214 235 248 245 259 241 233 258 242 245 251 262 275 262 259 255 232 222 206 200 210 203 196 188 187 187 186 185 186 191
193 196 201 196 195 195 194 208 206 222 220 201 217 238 236 284 267 270 265 240 246 249 243 249 245 250 269 273 255 226 210 194 219 203 200 198 197 192 191 180 158 167 195
203 191 201 208 196 191 194 206 219 214 221 225 230 242 238 237 254 281 266 256 249 257 257 242 235 256 273 270 248 215 201 196 228 211 207 203 199 197 189 172 168 196 209
216 201 202 206 196 187 197 205 222 223 235 242 244 244 245 249 248 254 265 269 251 254 253 258 279 273 252 260 223 209 199 206 219 207 213 215 209 204 201 201 197 212 198
197 197 204 197 200 193 196 202 216 224 238 245 247 245 249 262 265 241 255 266 258 250 260 256 249 267 264 249 209 217 221 228 224 212 219 216 214 209 208 201 196 188 190
203 200 200 193 200 195 199 206 221 233 238 244 254 260 264 248 248 246 264 240 262 256 256 263 288 295 265 246 227 218 223 232 228 224 218 220 221 221 213 210 197 189 205
201 200 199 193 190 194 200 210 220 241 258 261 264 263 277 273 256 258 253 215 234 244 238 253 247 253 306 264 226 228 224 226 231 244 244 241 232 226 223 219 213 208 212
202 198 197 192 190 192 192 205 224 237 254 266 280 276 289 282 288 263 246 234 221 233 232 230 242 273 211 191 140 195 223 227 232 234 243 245 243 239 231 233 224 217 208
198 197 197 193 189 195 194 201 207 236 267 258 275 283 287 301 296 262 242 238 225 221 233 227 222 235 251 219 170 231 281 214 255 239 217 224 241 235 236 228 224 219 228
194 199 199 196 191 194 199 201 222 220 256 286 295 296 294 305 301 291 232 226 224 236 244 262 242 246 256 243 214 218 216 248 230 244 230 226 231 235 236 234 235 231 218
196 196 195 195 192 197 206 213 216 208 182 269 282 289 293 305 315 274 225 227 229 239 245 258 268 245 241 241 231 203 223 219 228 235 230 228 229 232 235 233 223 226 227
192 193 194 196 186 197 210 212 185 193 224 270 267 282 286 307 325 290 236 235 233 235 235 248 252 255 245 238 233 230 230 224 219 236 230 232 236 231 232 236 234 229 233
187 187 189 187 185 209 197 204 221 231 218 248 262 284 278 299 293 295 246 236 239 240 233 236 245 253 254 251 244 246 244 242 231 234 238 239 236 231 225 226 225 231 237
188 182 204 200 207 208 201 196 185 229 244 247 257 264 266 277 270 276 273 257 254 254 257 251 252 260 255 258 259 250 247 243 236 229 234 236 236 230 231 231 235 240 239
194 190 194 197 189 193 164 190 181 220 237 246 256 255 262 284 264 270 263 255 248 242 251 251 250 259 256 259 256 255 253 252 246 240 239 240 233 241 236 231 237 235 236
206 198 200 205 188 200 196 193 216 227 267 231 236 242 239 254 269 277 276 274 273 275 270 265 266 252 244 241 246 250 248 257 253 242 242 237 238 226 229 236 242 236 235
214 216 208 193 196 185 179 153 176 232 333 310 318 303 306 322 337 319 312 308 295 280 281 289 288 281 284 262 259 258 256 244 240 244 250 261 253 241 235 240 238 243 238
205 179 165 173 170 161 182 166 180 213 244 246 238 335 356 329 310 312 325 319 312 316 301 296 303 299 296 292 282 278 273 270 266 260 258 260 257 255 248 247 240 240 243
128 118 142 123 145 173 158 211 239 236 234 251 249 255 247 7 356 313 342 328 288 297 299 296 309 308 307 305 299 292 287 279 278 279 273 267 272 274 267 256 254 247 241
99 100 117 183 155 195 250 236 224 249 260 248 263 269 219 309 288 311 317 311 313 312 312 288 320 328 326 335 338 334 317 302 287 282 281 275 284 277 273 271 255 249 242
100 171 93 228 224 247 256 249 246 261 272 322 204 206 215 237 320 6 20 11 349 22 29 11 349 339 348 317 316 329 325 324 330 322 317 320 306 291 293 292 281 270 262
256 271 255 242 260 277 257 262 254 276 288 293 330 152 104 138 210 52 39 347 312 338 354 348 349 348 19 21 8 336 300 295 292 301 303 305 299 302 299 295 296 296 286
265 255 250 249 250 259 272 242 250 332 325 49 94 110 104 116 118 86 67 57 48 80 41 25 334 347 345 316 288 290 298 298 297 298 295 299 294 302 298 294 289 295 291
326 233 205 187 198 169 58 148 121 81 105 115 107 86 77 78 82 72 33 295 332 4 11 14 28 27 21 15 1 353 340 331 325 323 314 305 300 295 291 293 294 293 292
74 91 104 113 104 96 92 95 98 96 95 87 81 88 89 76 71 60 74 72 53 41 47 51 49 30 35 29 10 2 355 351 355 352 355 348 349 345 345 341 334 327 309
69 88 104 127 123 101 96 96 96 91 86 85 85 82 84 82 79 71 80 67 53 64 49 41 34 8 11 350 344 350 348 347 346 346 341 338 333 334 333 335 332 335 336
Height
1510 1512 1512 1514 1514 1516 1517 1517 1518 1519 1518 1518 1518 1519 1519 1519 1519 1520 1520 1520 1521 1520 1519 1519 1518 1517 1518 1517 1517 1518 1520 1524 1525 1526 1530 1532 1534 1536 1537 1539 1539 1540 1541
1509 1511 1511 1512 1514 1516 1517 1517 1517 1517 1516 1517 1518 1518 1517 1518 1520 1519 1520 1519 1519 1518 1517 1517 1516 1516 1514 1514 1513 1514 1516 1520 1521 1524 1527 1530 1532 1534 1536 1538 1539 1541 1540
1507 1509 1510 1510 1512 1513 1515 1517 1517 1517 1517 1518 1517 1516 1516 1517 1517 1517 1517 1518 1517 1517 1516 1514 1514 1513 1513 1512 1512 1512 1514 1517 1519 1522 1525 1528 1531 1533 1534 1538 1538 1539 1541
1503 1506 1508 1509 1509 1511 1513 1515 1515 1516 1518 1518 1517 1517 1517 1517 1516 1516 1515 1515 1515 1516 1514 1514 1513 1511 1511 1511 1511 1512 1514 1515 1517 1520 1524 1526 1530 1531 1534 1536 1537 1538 1540
1500 1503 1505 1506 1508 1510 1510 1511 1513 1514 1515 1516 1515 1515 1515 1516 1515 1514 1514 1515 1515 1514 1513 1513 1511 1510 1509 1510 1511 1512 1513 1515 1515 1517 1520 1522 1526 1528 1531 1534 1537 1538 1539
1497 1500 1502 1503 1505 1507 1508 1510 1511 1511 1511 1512 1513 1513 1513 1513 1511 1512 1512 1513 1513 1513 1513 1513 1509 1509 1508 1509 1510 1512 1513 1514 1514 1516 1517 1519 1522 1525 1528 1530 1533 1534 1536
1491 1494 1496 1497 1498 1501 1504 1507 1508 1509 1509 1509 1509 1509 1510 1509 1509 1509 1509 1509 1511 1512 1511 1512 1512 1509 1509 1509 1509 1510 1512 1513 1514 1516 1516 1517 1519 1522 1524 1528 1530 1532 1533
1487 1490 1492 1494 1495 1497 1498 1501 1504 1505 1505 1506 1507 1506 1505 1505 1505 1505 1506 1506 1507 1508 1509 1510 1512 1511 1511 1511 1510 1511 1511 1511 1512 1513 1515 1516 1518 1520 1522 1525 1527 1528 1530
1482 1486 1488 1490 1491 1492 1493 1494 1496 1500 1502 1503 1503 1502 1501 1499 1500 1501 1502 1504 1505 1506 1508 1508 1509 1511 1509 1510 1512 1513 1511 1512 1512 1512 1514 1515 1517 1519 1521 1523 1523 1525 1527
1478 1481 1485 1487 1488 1489 1491 1490 1492 1490 1495 1500 1499 1499 1499 1497 1495 1496 1498 1502 1504 1505 1506 1505 1506 1507 1507 1508 1509 1511 1511 1512 1512 1511 1512 1513 1515 1517 1518 1520 1521 1522 1523
1474 1478 1481 1483 1485 1486 1488 1486 1486 1489 1488 1495 1497 1497 1498 1497 1494 1495 1498 1500 1502 1503 1504 1503 1503 1503 1504 1505 1506 1508 1510 1510 1511 1512 1512 1512 1511 1513 1514 1515 1517 1518 1519
1472 1475 1478 1480 1482 1481 1485 1486 1486 1486 1486 1488 1495 1495 1495 1495 1493 1492 1495 1498 1501 1502 1502 1503 1502 1501 1501 1502 1504 1505 1507 1508 1509 1510 1511 1511 1510 1509 1510 1511 1513 1514 1516
1463 1470 1474 1476 1479 1481 1481 1481 1483 1484 1486 1489 1492 1494 1494 1493 1493 1493 1493 1495 1498 1499 1500 1500 1499 1500 1501 1501 1501 1503 1504 1506 1507 1508 1508 1508 1508 1508 1509 1509 1509 1508 1510
1456 1459 1471 1473 1476 1477 1477 1475 1481 1485 1486 1486 1490 1492 1491 1491 1492 1492 1492 1493 1494 1495 1497 1497 1497 1497 1497 1498 1498 1499 1500 1500 1501 1501 1501 1502 1503 1502 1502 1503 1504 1503 1504
1452 1460 1470 1472 1474 1473 1476 1478 1479 1481 1482 1487 1488 1490 1489 1490 1490 1489 1490 1491 1491 1492 1492 1493 1492 1492 1493 1493 1494 1493 1493 1495 1495 1496 1498 1499 1499 1500 1500 1499 1500 1501 1500
1460 1465 1470 1472 1471 1473 1475 1475 1476 1475 1480 1483 1485 1486 1486 1485 1485 1486 1487 1487 1487 1487 1486 1485 1486 1486 1487 1489 1489 1489 1489 1488 1488 1491 1491 1489 1488 1490 1491 1493 1494 1495 1494
1463 1465 1467 1468 1470 1471 1471 1470 1474 1478 1481 1483 1484 1484 1483 1483 1484 1485 1484 1484 1483 1482 1482 1481 1480 1480 1479 1480 1482 1484 1482 1482 1482 1482 1481 1481 1482 1483 1483 1484 1485 1486 1485
1459 1461 1463 1467 1468 1468 1471 1473 1474 1478 1479 1479 1480 1481 1481 1480 1482 1483 1483 1482 1482 1481 1479 1478 1478 1477 1476 1476 1475 1476 1477 1475 1475 1476 1476 1476 1477 1477 1476 1475 1476 1475 1476
1452 1457 1461 1462 1465 1468 1470 1472 1475 1476 1477 1478 1476 1477 1479 1479 1480 1482 1481 1481 1482 1481 1479 1478 1477 1475 1474 1473 1472 1472 1472 1471 1471 1470 1469 1469 1470 1469 1470 1470 1470 1469 1470
1455 1458 1460 1466 1465 1468 1470 1472 1473 1473 1473 1474 1474 1476 1478 1478 1480 1480 1479 1479 1481 1479 1477 1476 1474 1473 1473 1471 1470 1469 1470 1469 1468 1467 1465 1465 1465 1463 1463 1463 1463 1463 1463
1463 1466 1466 1468 1467 1466 1466 1467 1469 1471 1471 1470 1472 1473 1474 1477 1481 1479 1479 1480 1478 1476 1474 1476 1476 1473 1472 1471 1470 1470 1470 1468 1467 1465 1464 1461 1460 1458 1458 1458 1457 1456 1456
1464 1465 1466 1466 1466 1466 1466 1467 1468 1469 1469 1469 1470 1473 1472 1475 1477 1477 1477 1477 1477 1476 1477 1476 1476 1473 1472 1471 1469 1468 1467 1466 1466 1464 1461 1460 1457 1456 1454 1452 1451 1450 1449
1463 1464 1464 1465 1466 1466 1467 1467 1468 1467 1468 1468 1469 1469 1473 1474 1474 1477 1478 1477 1475 1476 1476 1474 1472 1470 1470 1469 1467 1467 1466 1465 1463 1460 1458 1456 1455 1453 1452 1449 1446 1445 1444
1458 1459 1460 1460 1462 1464 1462 1461 1465 1467 1469 1470 1471 1472 1474 1475 1476 1476 1478 1476 1476 1476 1475 1474 1473 1471 1469 1468 1467 1465 1464 1463 1460 1458 1454 1453 1451 1448 1446 1445 1442 1439 1437
1459 1458 1457 1458 1463 1463 1464 1465 1466 1469 1470 1470 1470 1473 1476 1476 1475 1476 1476 1476 1477 1476 1477 1476 1474 1472 1472 1469 1466 1465 1463 1460 1457 1456 1455 1452 1449 1446 1444 1441 1438 1434 1431
1462 1462 1461 1462 1464 1465 1467 1467 1469 1470 1470 1471 1473 1474 1476 1477 1476 1478 1477 1477 1477 1476 1476 1476 1476 1473 1471 1470 1467 1464 1461 1458 1455 1453 1452 1450 1447 1445 1442 1440 1436 1432 1428